FW4655 Weather Reports


Display with metric or nautical units.
time (UTC)temp
F
wind
direction
speed
MPH
gust
MPH
rain 1hr
in
rain 24hr
in
rain mn
in
humidity
%
barometer
mb
20260831212512 82 42 3.0 6.0 0.00 0.00 0.00 42 1008.9
20260831212009 82 31 2.0 7.0 0.00 0.00 0.00 43 1008.9
20260831211519 82 102 3.0 7.0 0.00 0.00 0.00 42 1009.0
20260831211012 82 338 3.0 6.0 0.00 0.00 0.00 42 1009.1
20260831210512 81 48 4.0 7.0 0.00 0.00 0.00 43 1009.1
20260831210021 81 49 2.0 7.0 0.00 0.00 0.00 43 1009.1
20260831205510 82 60 3.0 6.0 0.00 0.00 0.00 42 1009.1
20260831205004 81 41 2.0 4.0 0.00 0.00 0.00 43 1009.1
20260831204513 80 181 1.0 8.0 0.00 0.00 0.00 44 1009.2
20260831204006 80 101 3.0 8.0 0.00 0.00 0.00 43 1009.3
20260831203508 80 60 1.0 5.0 0.00 0.00 0.00 44 1009.3
20260831203016 79 323 1.0 9.0 0.00 0.00 0.00 45 1009.3
20260831202509 79 36 3.0 9.0 0.00 0.00 0.00 45 1009.4
20260831202009 79 81 2.0 6.0 0.00 0.00 0.00 45 1009.4
20260831201521 79 77 4.0 6.0 0.00 0.00 0.00 46 1009.5
20260831201020 79 103 2.0 7.0 0.00 0.00 0.00 46 1009.6
20260831200512 77 84 2.0 7.0 0.00 0.00 0.00 47 1009.7
20260831200029 78 54 3.0 6.0 0.00 0.00 0.00 47 1009.7
20260831195516 77 214 2.0 5.0 0.00 0.00 0.00 48 1009.9
20260831195016 77 104 2.0 5.0 0.00 0.00 0.00 49 1010.0
20260831194535 77 82 3.0 5.0 0.00 0.00 0.00 49 1010.0
20260831194016 76 39 2.0 7.0 0.00 0.00 0.00 50 1010.0
20260831193521 76 76 2.0 7.0 0.00 0.00 0.00 50 1010.1
20260831193009 76 15 2.0 5.0 0.00 0.00 0.00 50 1010.1
20260831192510 76 72 3.0 5.0 0.00 0.00 0.00 49 1010.2
20260831192011 76 91 2.0 6.0 0.00 0.00 0.00 52 1010.3
20260831191514 75 98 2.0 6.0 0.00 0.00 0.00 51 1010.3
20260831191010 74 81 3.0 6.0 0.00 0.00 0.00 52 1010.4
20260831190513 74 103 2.0 6.0 0.00 0.00 0.00 52 1010.6
20260831190026 74 32 3.0 6.0 0.00 0.00 0.00 52 1010.7
20260831185514 74 86 2.0 5.0 0.00 0.00 0.00 52 1010.8
20260831185013 73 72 1.0 5.0 0.00 0.00 0.00 54 1010.9
20260831184534 72 93 2.0 7.0 0.00 0.00 0.00 54 1010.9
20260831184015 73 86 4.0 7.0 0.00 0.00 0.00 54 1010.9
20260831183514 73 100 0.0 5.0 0.00 0.00 0.00 54 1011.0
20260831183024 72 68 3.0 4.0 0.00 0.00 0.00 54 1011.1
20260831182516 72 91 2.0 4.0 0.00 0.00 0.00 56 1011.2
20260831182013 71 283 0.0 6.0 0.00 0.00 0.00 57 1011.2
20260831181528 71 34 1.0 6.0 0.00 0.00 0.00 57 1011.3
20260831181011 71 103 2.0 5.0 0.00 0.00 0.00 57 1011.5
20260831180512 70 314 2.0 5.0 0.00 0.00 0.00 59 1011.6
20260831180018 70 9 3.0 5.0 0.00 0.00 0.00 59 1011.6
20260831175511 70 32 2.0 5.0 0.00 0.00 0.00 57 1011.7
20260831175011 69 62 1.0 6.0 0.00 0.00 0.00 59 1011.7
20260831174527 69 110 1.0 6.0 0.00 0.00 0.00 60 1011.7
20260831174012 68 72 3.0 6.0 0.00 0.00 0.00 61 1011.7
20260831173516 68 56 2.0 5.0 0.00 0.00 0.00 61 1011.7
20260831173036 67 79 3.0 5.0 0.00 0.00 0.00 62 1011.8
20260831172516 67 49 1.0 4.0 0.00 0.00 0.00 63 1011.8
20260831172013 67 51 2.0 4.0 0.00 0.00 0.00 63 1011.9
20260831171530 66 104 2.0 5.0 0.00 0.00 0.00 63 1011.9
20260831171016 66 60 1.0 5.0 0.00 0.00 0.00 65 1011.9
20260831170516 65 85 0.0 5.0 0.00 0.00 0.00 66 1012.0
20260831170028 65 89 2.0 5.0 0.00 0.00 0.00 66 1012.1
20260831165519 65 106 3.0 5.0 0.00 0.00 0.00 66 1012.1
20260831165010 65 94 2.0 6.0 0.00 0.00 0.00 67 1012.1
20260831164521 64 90 1.0 6.0 0.00 0.00 0.00 68 1012.1
20260831164015 64 124 1.0 5.0 0.00 0.00 0.00 69 1012.1
20260831163514 64 65 1.0 5.0 0.00 0.00 0.00 69 1012.1
20260831163028 63 135 0.0 4.0 0.00 0.00 0.00 70 1012.2
20260831162518 63 105 2.0 6.0 0.00 0.00 0.00 71 1012.3
20260831162017 63 76 1.0 6.0 0.00 0.00 0.00 72 1012.3
20260831161528 62 23 2.0 3.0 0.00 0.00 0.00 73 1012.4
20260831161020 62 79 1.0 5.0 0.00 0.00 0.00 74 1012.5
20260831160520 61 101 3.0 6.0 0.00 0.00 0.00 74 1012.5
20260831160032 61 77 3.0 6.0 0.00 0.00 0.00 75 1012.5
20260831155519 60 113 2.0 5.0 0.00 0.00 0.00 76 1012.6
20260831155018 60 74 3.0 6.0 0.00 0.00 0.00 76 1012.6
20260831154553 60 98 3.0 7.0 0.00 0.00 0.00 77 1012.5
20260831154019 60 65 2.0 7.0 0.00 0.00 0.00 78 1012.5
20260831153521 59 53 2.0 7.0 0.00 0.00 0.00 78 1012.5
20260831153030 59 65 2.0 6.0 0.00 0.00 0.00 79 1012.6
20260831152513 59 338 3.0 8.0 0.00 0.00 0.00 79 1012.7
20260831152017 58 55 3.0 8.0 0.00 0.00 0.00 80 1012.8
20260831151505 58 85 2.0 6.0 0.00 0.00 0.00 81 1012.9
20260831151005 58 117 3.0 6.0 0.00 0.00 0.00 82 1013.0
20260831150506 57 57 1.0 3.0 0.00 0.00 0.00 83 1013.0
20260831150013 57 102 1.0 4.0 0.00 0.00 0.00 84 1012.9
20260831145509 56 78 0.0 4.0 0.00 0.00 0.00 86 1012.9
20260831145008 55 92 0.0 1.0 0.00 0.00 0.00 87 1012.9
20260831144522 55 144 0.0 0.0 0.00 0.00 0.00 88 1012.9
20260831144010 54 144 0.0 0.0 0.00 0.00 0.00 89 1013.0
20260831143508 54 144 0.0 0.0 0.00 0.00 0.00 90 1013.0
20260831143021 53 144 0.0 0.0 0.00 0.00 0.00 90 1012.9
20260831142511 53 144 0.0 1.0 0.00 0.00 0.00 90 1012.9
20260831142007 52 144 0.0 1.0 0.00 0.00 0.00 90 1012.9
20260831141504 52 144 0.0 0.0 0.00 0.00 0.00 90 1012.9
20260831141002 52 144 0.0 0.0 0.00 0.00 0.00 90 1012.9
20260831140504 52 144 0.0 0.0 0.00 0.00 0.00 89 1012.9
20260831140007 52 144 0.0 0.0 0.00 0.00 0.00 89 1012.9
20260831135505 52 144 0.0 0.0 0.00 0.00 0.00 89 1013.0
20260831135007 51 144 0.0 0.0 0.00 0.00 0.00 89 1013.0
20260831134507 51 144 0.0 0.0 0.00 0.00 0.00 89 1013.0
20260831134005 51 144 0.0 0.0 0.00 0.00 0.00 89 1012.9
20260831133509 51 144 0.0 0.0 0.00 0.00 0.00 89 1012.9
20260831133014 52 144 0.0 0.0 0.00 0.00 0.00 88 1012.9
20260831132510 52 144 0.0 0.0 0.00 0.00 0.00 88 1012.9
20260831132012 52 144 0.0 0.0 0.00 0.00 0.00 89 1012.9
20260831131520 52 144 0.0 0.0 0.00 0.00 0.00 88 1013.0
20260831131013 52 144 0.0 0.0 0.00 0.00 0.00 88 1013.0
20260831130516 52 144 0.0 0.0 0.00 0.00 0.00 87 1013.1
20260831130004 53 144 0.0 0.0 0.00 0.00 0.00 88 1013.1
20260831125506 53 144 0.0 0.0 0.00 0.00 0.00 88 1013.1
20260831125004 53 144 0.0 0.0 0.00 0.00 0.00 88 1013.1
20260831124509 53 143 0.0 0.0 0.00 0.00 0.00 88 1013.2
20260831124007 53 143 0.0 0.0 0.00 0.00 0.00 88 1013.2
20260831123508 53 143 0.0 0.0 0.00 0.00 0.00 88 1013.3
20260831123009 53 143 0.0 0.0 0.00 0.00 0.00 88 1013.2
20260831122507 53 143 0.0 0.0 0.00 0.00 0.00 88 1013.3
20260831122008 53 143 0.0 0.0 0.00 0.00 0.00 87 1013.3
20260831121528 53 143 0.0 0.0 0.00 0.00 0.00 87 1013.4
20260831121012 53 143 0.0 0.0 0.00 0.00 0.00 87 1013.5
20260831120518 53 143 0.0 0.0 0.00 0.00 0.00 87 1013.5
20260831120025 53 142 0.0 0.0 0.00 0.00 0.00 87 1013.5
20260831115514 53 143 0.0 0.0 0.00 0.00 0.00 87 1013.4
20260831115014 53 143 0.0 0.0 0.00 0.00 0.00 87 1013.5
20260831114530 53 143 0.0 0.0 0.00 0.00 0.00 86 1013.6
20260831114004 54 143 0.0 0.0 0.00 0.00 0.00 86 1013.6
20260831113504 54 143 0.0 0.0 0.00 0.00 0.00 86 1013.6
20260831113008 54 143 0.0 0.0 0.00 0.00 0.00 86 1013.6
20260831112506 54 143 0.0 0.0 0.00 0.00 0.00 86 1013.7
20260831112006 54 143 0.0 0.0 0.00 0.00 0.00 86 1013.7
20260831111511 54 143 0.0 0.0 0.00 0.00 0.00 86 1013.7
20260831111008 54 143 0.0 0.0 0.00 0.00 0.00 86 1013.8
20260831110510 55 143 0.0 0.0 0.00 0.00 0.00 86 1013.8
20260831110020 55 143 0.0 0.0 0.00 0.00 0.00 85 1013.8
20260831105510 55 143 0.0 0.0 0.00 0.00 0.00 86 1013.8
20260831105016 55 143 0.0 0.0 0.00 0.00 0.00 86 1013.9
20260831104524 55 150 0.0 0.0 0.00 0.00 0.00 86 1013.9
20260831104016 55 150 0.0 0.0 0.00 0.00 0.00 86 1013.9
20260831103516 55 150 0.0 0.0 0.00 0.00 0.00 86 1013.9
20260831103029 55 150 0.0 0.0 0.00 0.00 0.00 86 1014.0
20260831102514 55 150 0.0 0.0 0.00 0.00 0.00 86 1014.0
20260831102019 55 150 0.0 0.0 0.00 0.00 0.00 86 1014.0
20260831101511 55 150 0.0 0.0 0.00 0.00 0.00 85 1014.0
20260831101008 55 150 0.0 0.0 0.00 0.00 0.00 85 1014.0
20260831100507 55 150 0.0 0.0 0.00 0.00 0.00 86 1014.1
20260831100015 55 150 0.0 0.0 0.00 0.00 0.00 85 1014.1
20260831095512 55 150 0.0 0.0 0.00 0.00 0.00 85 1014.2
20260831095012 56 150 0.0 0.0 0.00 0.00 0.00 84 1014.2
20260831094523 56 150 0.0 0.0 0.00 0.00 0.00 84 1014.2
20260831094012 56 150 0.0 0.0 0.00 0.00 0.00 85 1014.3
20260831093514 56 150 0.0 0.0 0.00 0.00 0.00 84 1014.4
20260831093028 56 150 0.0 0.0 0.00 0.00 0.00 84 1014.4
20260831092515 56 150 0.0 0.0 0.00 0.00 0.00 84 1014.5
20260831092022 56 150 0.0 0.0 0.00 0.00 0.00 85 1014.5
20260831091530 56 150 0.0 0.0 0.00 0.00 0.00 84 1014.6
20260831091014 57 150 0.0 0.0 0.00 0.00 0.00 84 1014.6
20260831090516 56 150 0.0 1.0 0.00 0.00 0.00 84 1014.6
20260831090031 56 150 0.0 1.0 0.00 0.00 0.00 84 1014.6
20260831085509 56 150 0.0 0.0 0.00 0.00 0.00 83 1014.6
20260831085008 57 150 0.0 0.0 0.00 0.00 0.00 84 1014.7
20260831084528 56 150 0.0 0.0 0.00 0.00 0.00 83 1014.7
20260831084010 56 150 0.0 0.0 0.00 0.00 0.00 83 1014.8
20260831083513 57 150 0.0 0.0 0.00 0.00 0.00 82 1014.9
20260831083024 57 150 0.0 0.0 0.00 0.00 0.00 83 1014.9
20260831082514 57 150 0.0 0.0 0.00 0.00 0.00 82 1015.0
20260831082013 57 150 0.0 0.0 0.00 0.00 0.00 81 1015.1
20260831081528 58 150 0.0 0.0 0.00 0.00 0.00 81 1015.1
20260831081017 58 150 0.0 0.0 0.00 0.00 0.00 81 1015.1
20260831080517 58 150 0.0 0.0 0.00 0.00 0.00 80 1015.2
20260831080029 58 150 0.0 0.0 0.00 0.00 0.00 79 1015.2
20260831075514 59 150 0.0 0.0 0.00 0.00 0.00 79 1015.2
20260831075017 59 150 0.0 0.0 0.00 0.00 0.00 79 1015.3
20260831074540 59 150 0.0 0.0 0.00 0.00 0.00 78 1015.2
20260831074020 59 150 0.0 0.0 0.00 0.00 0.00 78 1015.3
20260831073512 60 150 0.0 0.0 0.00 0.00 0.00 78 1015.3
20260831073047 60 150 0.0 0.0 0.00 0.00 0.00 77 1015.4
20260831072515 60 150 0.0 0.0 0.00 0.00 0.00 77 1015.5
20260831072011 60 150 0.0 1.0 0.00 0.00 0.00 77 1015.5
20260831071525 61 150 0.0 1.0 0.00 0.00 0.00 77 1015.5
20260831071017 60 143 0.0 0.0 0.00 0.00 0.00 76 1015.5
20260831070514 60 143 0.0 0.0 0.00 0.00 0.00 76 1015.6
20260831070032 61 143 0.0 0.0 0.00 0.00 0.00 76 1015.7
20260831065522 61 143 0.0 1.0 0.00 0.00 0.00 75 1015.7
20260831065017 62 143 0.0 1.0 0.00 0.00 0.00 74 1015.7
20260831064538 62 143 0.0 1.0 0.00 0.00 0.00 74 1015.8
20260831064019 62 146 0.0 1.0 0.00 0.00 0.00 74 1015.7
20260831063520 62 146 0.0 1.0 0.00 0.00 0.00 74 1015.8
20260831063030 62 162 0.0 1.0 0.00 0.00 0.00 73 1015.8
20260831062519 63 96 0.0 1.0 0.00 0.00 0.00 73 1015.9
20260831062017 63 96 0.0 3.0 0.00 0.00 0.00 73 1015.9
20260831061520 63 77 0.0 3.0 0.00 0.00 0.00 73 1015.9
20260831061013 63 123 0.0 3.0 0.00 0.00 0.00 73 1015.9
20260831060515 63 128 0.0 3.0 0.00 0.00 0.00 72 1016.0
20260831060025 64 98 0.0 3.0 0.00 0.00 0.00 72 1016.1
20260831055504 64 110 0.0 5.0 0.00 0.00 0.00 72 1016.2
20260831055004 64 79 2.0 5.0 0.00 0.00 0.00 72 1016.2
20260831054507 64 77 0.0 5.0 0.00 0.00 0.00 72 1016.2
20260831054004 64 100 0.0 5.0 0.00 0.00 0.00 72 1016.3
20260831053506 64 53 0.0 4.0 0.00 0.00 0.00 72 1016.3
20260831053018 64 39 0.0 5.0 0.00 0.00 0.00 71 1016.3
20260831052511 64 27 0.0 5.0 0.00 0.00 0.00 71 1016.4
20260831052010 64 86 2.0 6.0 0.00 0.00 0.00 71 1016.4
20260831051516 64 25 0.0 6.0 0.00 0.00 0.00 70 1016.4
20260831051011 65 63 1.0 4.0 0.00 0.00 0.00 70 1016.4
20260831050518 65 352 0.0 5.0 0.00 0.00 0.00 69 1016.5
20260831050037 65 94 0.0 5.0 0.00 0.00 0.00 69 1016.5
20260831045513 65 146 2.0 5.0 0.00 0.00 0.00 69 1016.5
20260831045014 65 74 0.0 4.0 0.00 0.00 0.00 69 1016.6
20260831044527 65 33 0.0 3.0 0.00 0.00 0.00 69 1016.6
20260831044020 65 99 2.0 3.0 0.00 0.00 0.00 69 1016.6
20260831043505 65 58 0.0 2.0 0.00 0.00 0.00 68 1016.7
20260831043009 65 51 1.0 6.0 0.00 0.00 0.00 68 1016.7
20260831042506 66 82 0.0 6.0 0.00 0.00 0.00 67 1016.7
20260831042007 66 40 1.0 6.0 0.00 0.00 0.00 67 1016.7
20260831041511 66 33 1.0 4.0 0.00 0.00 0.00 67 1016.8
20260831041009 66 45 1.0 4.0 0.00 0.00 0.00 67 1016.8
20260831040512 66 49 0.0 4.0 0.00 0.00 0.00 66 1016.7
20260831040039 66 96 1.0 4.0 0.00 0.00 0.00 66 1016.7
20260831035512 66 82 0.0 2.0 0.00 0.00 0.00 65 1016.7
20260831035012 67 77 0.0 4.0 0.00 0.00 0.00 65 1016.8
20260831034531 67 52 0.0 5.0 0.00 0.00 0.00 64 1016.8
20260831034016 67 93 0.0 5.0 0.00 0.00 0.00 64 1016.7
20260831033516 67 59 2.0 5.0 0.00 0.00 0.00 64 1016.7
20260831033027 67 54 2.0 4.0 0.00 0.00 0.00 63 1016.8
20260831032514 67 50 1.0 6.0 0.00 0.00 0.00 63 1016.7
20260831032018 68 65 3.0 8.0 0.00 0.00 0.00 63 1016.7
20260831031529 68 104 3.0 8.0 0.00 0.00 0.00 62 1016.7
20260831031023 68 79 1.0 7.0 0.00 0.00 0.00 62 1016.8
20260831030515 68 58 4.0 7.0 0.00 0.00 0.00 62 1016.8
20260831030043 68 94 2.0 7.0 0.00 0.00 0.00 61 1016.8
20260831025517 68 79 2.0 7.0 0.00 0.00 0.00 61 1016.8
20260831025020 69 79 3.0 11.0 0.00 0.00 0.00 60 1016.9
20260831024518 69 49 3.0 11.0 0.00 0.00 0.00 60 1016.8
20260831024016 69 95 2.0 11.0 0.00 0.00 0.00 59 1016.9
20260831023519 69 70 3.0 11.0 0.00 0.00 0.00 59 1017.0
20260831023026 69 54 3.0 12.0 0.00 0.00 0.00 59 1017.1
20260831022519 69 66 4.0 12.0 0.00 0.00 0.00 58 1017.0
20260831022015 70 34 4.0 9.0 0.00 0.00 0.00 58 1017.1
20260831021531 70 57 3.0 6.0 0.00 0.00 0.00 57 1017.0
20260831021014 70 56 2.0 10.0 0.00 0.00 0.00 57 1017.1
20260831020516 70 63 4.0 10.0 0.00 0.00 0.00 57 1017.1
20260831020031 71 60 4.0 11.0 0.00 0.00 0.00 56 1017.1
20260831015518 71 63 5.0 11.0 0.00 0.00 0.00 55 1017.1
20260831015019 71 61 4.0 11.0 0.00 0.00 0.00 55 1017.1
20260831014539 72 64 3.0 9.0 0.00 0.00 0.00 54 1017.1
20260831014018 72 65 4.0 7.0 0.00 0.00 0.00 54 1017.2
20260831013519 72 96 4.0 9.0 0.00 0.00 0.00 54 1017.2
20260831013035 72 58 4.0 13.0 0.00 0.00 0.00 54 1017.3
20260831012514 72 58 5.0 13.0 0.00 0.00 0.00 53 1017.4
20260831012013 72 60 6.0 11.0 0.00 0.00 0.00 53 1017.4
20260831011536 73 39 4.0 11.0 0.00 0.00 0.00 52 1017.5
20260831011018 73 46 4.0 9.0 0.00 0.00 0.00 52 1017.5
20260831010514 72 57 4.0 9.0 0.00 0.00 0.00 52 1017.5
20260831010031 73 82 4.0 9.0 0.00 0.00 0.00 52 1017.6
20260831005516 73 105 5.0 10.0 0.00 0.00 0.00 51 1017.7
20260831005020 73 72 5.0 12.0 0.00 0.00 0.00 51 1017.7
20260831004530 73 42 4.0 12.0 0.00 0.00 0.00 51 1017.7
20260831004018 73 66 4.0 10.0 0.00 0.00 0.00 51 1017.8
20260831003519 73 53 2.0 11.0 0.00 0.00 0.00 50 1017.8
20260831003032 73 80 3.0 11.0 0.00 0.00 0.00 51 1017.9
20260831002518 73 51 4.0 10.0 0.00 0.00 0.00 50 1017.8
20260831002019 73 45 2.0 12.0 0.00 0.00 0.00 50 1017.9
20260831001508 73 71 3.0 12.0 0.00 0.00 0.00 50 1017.9
20260831001004 73 68 5.0 10.0 0.00 0.00 0.00 49 1017.8
20260831000503 73 62 2.0 8.0 0.00 0.00 0.00 49 1017.9
20260831000006 73 79 4.0 9.0 0.00 0.00 0.00 50 1018.0
20260830235504 73 42 6.0 9.0 0.00 0.00 0.00 49 1018.0
20260830235005 74 49 2.0 8.0 0.00 0.00 0.00 48 1018.0
20260830234511 74 56 4.0 8.0 0.00 0.00 0.00 47 1018.1
20260830234005 74 125 1.0 11.0 0.00 0.00 0.00 48 1018.1
20260830233513 73 84 2.0 11.0 0.00 0.00 0.00 49 1018.2
20260830233025 73 77 5.0 11.0 0.00 0.00 0.00 49 1018.2
20260830232511 73 252 3.0 11.0 0.00 0.00 0.00 49 1018.3
20260830232011 73 55 5.0 11.0 0.00 0.00 0.00 48 1018.3
20260830231520 73 22 3.0 10.0 0.00 0.00 0.00 49 1018.4
20260830231011 72 85 3.0 12.0 0.00 0.00 0.00 50 1018.4
20260830230511 73 82 3.0 12.0 0.00 0.00 0.00 49 1018.4
20260830230004 73 62 4.0 9.0 0.00 0.00 0.00 49 1018.5
20260830225504 73 90 3.0 10.0 0.00 0.00 0.00 49 1018.6
20260830225004 73 87 5.0 10.0 0.00 0.00 0.00 49 1018.6
20260830224507 73 293 4.0 8.0 0.00 0.00 0.00 49 1018.7
20260830224004 73 35 2.0 10.0 0.00 0.00 0.00 50 1018.8
20260830223509 72 96 3.0 10.0 0.00 0.00 0.00 50 1019.1
20260830223014 72 63 3.0 10.0 0.00 0.00 0.00 50 1019.1
20260830222508 72 143 3.0 10.0 0.00 0.00 0.00 50 1019.2
20260830222010 72 121 3.0 12.0 0.00 0.00 0.00 50 1019.3
20260830221516 72 44 3.0 12.0 0.00 0.00 0.00 50 1019.4
20260830221013 72 331 4.0 9.0 0.00 0.00 0.00 50 1019.5
20260830220513 72 322 2.0 11.0 0.00 0.00 0.00 50 1019.6
20260830220043 72 158 3.0 11.0 0.00 0.00 0.00 50 1019.6
20260830215518 72 93 3.0 11.0 0.00 0.00 0.00 49 1019.8
20260830215016 71 115 1.0 11.0 0.00 0.00 0.00 51 1019.8
20260830214528 71 107 5.0 11.0 0.00 0.00 0.00 51 1019.8
20260830214004 71 48 4.0 9.0 0.00 0.00 0.00 51 1019.8
20260830213504 71 50 5.0 11.0 0.00 0.00 0.00 51 1019.8
20260830213012 70 69 4.0 11.0 0.00 0.00 0.00 52 1019.8